Simultaneous Nadir Overpasses (SNOs) Predictions

Prediction of SNOs between NOAA-19 and TERRA Satellite Orbit:

Table of predicted SNOs for the next 14.0 days since TLE Epoch: 1/8/2017
Index Date (NOAA-19) Time (NOAA-19) Lat,Lon (NOAA-19) SZA (NOAA-19 ) Date (TERRA) Time (TERRA) Lat,Lon (TERRA) SZA (TERRA ) Distance(km) Time Diff (sec)
1 01/10/2017 07:39:05 -74.79,-105.44 83.27 01/10/2017 07:39:11 -74.79,-105.39 83.27 1.35 6
2 01/10/2017 08:29:53 74.40, 62.95 96.37 01/10/2017 08:28:43 74.45, 61.42 96.37 46.05 70
3 01/12/2017 12:22:10 -75.34,-177.78 83.13 01/12/2017 12:23:17 -75.25,-175.24 83.13 72.37 67
4 01/12/2017 13:12:54 74.77, -8.78 96.35 01/12/2017 13:12:52 74.77, -8.86 96.35 2.43 2
5 01/14/2017 17:55:54 75.05, -80.28 96.22 01/14/2017 17:57:05 74.93, -79.53 96.13 25.29 71
6 01/14/2017 18:46:54 -74.79, 87.73 84.03 01/14/2017 18:46:36 -74.76, 87.68 84.06 3.24 18
7 01/16/2017 23:29:50 -74.88, 16.79 84.37 01/16/2017 23:30:50 -74.86, 16.87 84.37 2.98 60
8 01/17/2017 00:20:44 74.78,-175.64 95.54 01/17/2017 00:20:17 74.78,-175.70 95.54 1.80 27
9 01/19/2017 05:03:40 74.87, 113.41 95.17 01/19/2017 05:04:31 74.88, 113.48 95.19 2.16 51
10 01/19/2017 05:54:44 -74.80, -79.16 84.90 01/19/2017 05:54:00 -74.81, -79.05 84.90 3.25 44
11 01/21/2017 10:37:39 -74.86,-149.99 85.33 01/21/2017 10:38:15 -74.85,-150.01 85.34 0.82 36
